FW6065 Weather Reports


time (UTC)temp
C
wind
direction
speed
KPH
gust
KPH
rain 1hr
cm
rain 24hr
cm
rain mn
cm
humidity
%
barometer
mb
20260508135856 11 203 8.0 22.5 0.00 0.20 0.03 65 1003.3
20260508135346 11 293 4.8 22.5 0.00 0.20 0.03 64 1003.3
20260508134836 11 338 9.7 24.1 0.00 0.20 0.03 66 1003.1
20260508134325 11 293 8.0 27.4 0.00 0.20 0.03 65 1003.3
20260508133816 10 315 17.7 27.4 0.00 0.20 0.03 67 1003.2
20260508133305 10 0 9.7 24.1 0.00 0.20 0.03 67 1003.1
20260508132251 10 270 6.4 25.7 0.00 0.20 0.03 69 1003.2
20260508131225 10 315 9.7 22.5 0.00 0.20 0.03 69 1003.2
20260508130716 10 293 9.7 22.5 0.00 0.20 0.03 71 1003.1
20260508130205 9 315 11.3 22.5 0.00 0.20 0.03 71 1003.2
20260508125655 9 180 4.8 22.5 0.00 0.20 0.03 72 1003.3
20260508125145 9 338 6.4 20.9 0.00 0.20 0.03 73 1003.3
20260508124635 9 293 3.2 17.7 0.00 0.20 0.03 73 1003.2
20260508124125 9 293 3.2 17.7 0.00 0.20 0.03 73 1003.1
20260508123104 8 180 6.4 24.1 0.00 0.20 0.03 73 1002.7
20260508122554 8 338 8.0 17.7 0.00 0.20 0.03 74 1002.8
20260508122044 8 248 4.8 20.9 0.00 0.20 0.03 74 1002.9
20260508121535 8 248 3.2 25.7 0.00 0.20 0.03 75 1002.6
20260508121025 8 270 6.4 27.4 0.00 0.20 0.03 75 1002.5
20260508120514 8 270 8.0 27.4 0.00 0.20 0.03 75 1002.6
20260508120004 8 338 9.7 27.4 0.00 0.20 0.03 75 1002.7
20260508115453 8 315 12.9 24.1 0.00 0.20 0.03 77 1002.7
20260508114947 7 293 6.4 24.1 0.00 0.20 0.03 77 1002.4
20260508114433 7 315 4.8 17.7 0.00 0.20 0.03 77 1002.5
20260508113923 7 225 3.2 14.5 0.00 0.20 0.03 77 1002.3
20260508113413 7 338 6.4 17.7 0.00 0.20 0.03 78 1002.4
20260508112904 7 338 3.2 17.7 0.00 0.20 0.03 78 1002.2
20260508112353 7 315 6.4 22.5 0.00 0.20 0.03 80 1002.2
20260508111333 7 270 11.3 22.5 0.00 0.20 0.03 81 1001.9
20260508110822 7 293 6.4 22.5 0.00 0.20 0.03 84 1001.9
20260508110314 7 338 8.0 22.5 0.00 0.20 0.03 84 1001.9
20260508105802 7 225 6.4 20.9 0.00 0.20 0.03 84 1001.8
20260508105252 7 225 6.4 24.1 0.00 0.20 0.03 84 1001.9
20260508104742 7 225 6.4 24.1 0.00 0.20 0.03 84 1001.9
20260508104232 7 293 6.4 17.7 0.00 0.20 0.03 86 1001.6
20260508103722 7 293 6.4 17.7 0.00 0.20 0.03 86 1001.6
20260508103212 7 270 8.0 17.7 0.00 0.20 0.03 86 1001.7
20260508102702 7 248 9.7 17.7 0.00 0.20 0.03 87 1001.6
20260508102151 7 225 6.4 17.7 0.00 0.20 0.03 88 1001.4
20260508101644 7 315 8.0 17.7 0.00 0.20 0.03 87 1001.4
20260508100111 7 225 6.4 17.7 0.00 0.20 0.03 86 1000.9
20260508094538 8 90 9.7 27.4 0.00 0.20 0.03 85 1000.8
20260508094031 8 293 8.0 27.4 0.00 0.20 0.03 84 1000.8
20260508093524 8 270 9.7 24.1 0.00 0.20 0.03 83 1000.9
20260508093014 8 315 6.4 27.4 0.00 0.20 0.03 82 1000.9
20260508092500 8 315 8.0 27.4 0.00 0.20 0.03 81 1000.7
20260508091949 8 293 6.4 25.7 0.00 0.20 0.03 80 1000.7
20260508091440 8 248 4.8 22.5 0.00 0.20 0.03 79 1000.8
20260508090930 8 158 4.8 25.7 0.00 0.20 0.03 80 1000.6
20260508090419 8 315 6.4 25.7 0.00 0.20 0.03 81 1000.5
20260508085909 9 203 6.4 24.1 0.00 0.20 0.03 79 1000.4
20260508085359 9 225 4.8 25.7 0.00 0.20 0.03 78 1000.5
20260508084849 9 293 4.8 25.7 0.00 0.20 0.03 77 1000.4
20260508083829 9 270 6.4 20.9 0.00 0.20 0.03 76 1000.3
20260508083319 9 293 6.4 20.9 0.00 0.20 0.03 77 1000.3
20260508082810 9 248 4.8 24.1 0.00 0.20 0.03 78 1000.5
20260508082258 9 293 6.4 24.1 0.00 0.20 0.03 77 1000.5
20260508081749 9 248 6.4 24.1 0.00 0.20 0.03 76 1000.5
20260508081238 9 270 8.0 27.4 0.00 0.20 0.03 75 1000.4
20260508080728 9 225 3.2 27.4 0.00 0.20 0.03 74 1000.3
20260508080219 9 158 11.3 22.5 0.00 0.20 0.03 74 1000.5
20260508075711 9 248 11.3 22.5 0.00 0.20 0.03 75 1000.4
20260508075157 9 248 8.0 25.7 0.00 0.20 0.03 76 1000.4
20260508074648 9 225 11.3 25.7 0.00 0.20 0.03 76 1000.3
20260508074137 9 270 6.4 22.5 0.00 0.20 0.03 78 1000.3
20260508073627 9 293 6.4 25.7 0.00 0.20 0.03 77 1000.2
20260508073118 9 248 11.3 25.7 0.00 0.20 0.03 76 1000.5
20260508072057 9 0 6.4 29.0 0.00 0.20 0.03 76 1000.5
20260508071547 9 248 4.8 29.0 0.00 0.20 0.03 76 1000.6
20260508071039 9 248 8.0 29.0 0.00 0.20 0.03 75 1000.6
20260508070527 9 293 4.8 22.5 0.00 0.20 0.03 75 1000.7
20260508070017 9 248 6.4 22.5 0.00 0.20 0.03 76 1000.8
20260508065506 9 23 6.4 22.5 0.00 0.20 0.03 78 1000.8
20260508064957 9 248 11.3 20.9 0.00 0.20 0.03 77 1000.9
20260508064447 9 225 9.7 22.5 0.00 0.20 0.03 76 1001.0
20260508063937 9 225 4.8 27.4 0.00 0.20 0.03 77 1001.0
20260508063426 9 45 9.7 29.0 0.00 0.20 0.03 76 1001.0
20260508062916 9 135 12.9 32.2 0.00 0.20 0.03 76 1001.3
20260508062409 9 225 14.5 32.2 0.00 0.20 0.03 76 1001.1
20260508061856 9 180 8.0 20.9 0.00 0.20 0.03 79 1001.1
20260508060836 9 225 11.3 24.1 0.00 0.20 0.03 79 1001.3
20260508060325 9 225 9.7 24.1 0.00 0.20 0.03 80 1001.2
20260508055816 9 203 6.4 27.4 0.00 0.20 0.03 80 1001.2
20260508055308 9 158 11.3 27.4 0.00 0.20 0.03 79 1001.2
20260508054758 9 293 6.4 22.5 0.00 0.20 0.03 78 1001.1
20260508054246 9 158 6.4 22.5 0.00 0.20 0.03 79 1001.2
20260508053736 9 225 8.0 17.7 0.00 0.20 0.03 78 1001.4
20260508053224 9 0 6.4 17.7 0.00 0.20 0.03 79 1001.2
20260508052715 9 225 8.0 17.7 0.00 0.20 0.03 78 1001.2
20260508052206 9 225 8.0 25.7 0.00 0.20 0.03 80 1001.2
20260508050634 9 135 4.8 27.4 0.00 0.20 0.03 83 1001.0
20260508050127 9 225 6.4 27.4 0.00 0.20 0.03 84 1001.1
20260508044554 9 315 6.4 20.9 0.00 0.20 0.03 84 1000.8
20260508043534 9 180 6.4 20.9 0.00 0.20 0.03 85 1000.9
20260508042514 9 248 8.0 22.5 0.00 0.20 0.03 86 1000.8
20260508042003 9 315 8.0 20.9 0.00 0.20 0.03 88 1000.9
20260508040943 8 45 6.4 17.7 0.03 0.20 0.03 91 1000.9
20260508040433 8 270 6.4 20.9 0.03 0.20 0.03 92 1001.0
20260508035923 8 293 8.0 25.7 0.03 0.20 0.03 92 1000.9
20260508034902 9 315 6.4 22.5 0.03 0.20 0.03 92 1000.8
20260508034353 8 248 11.3 24.1 0.03 0.20 0.03 93 1001.0
20260508033843 8 180 9.7 24.1 0.03 0.20 0.03 94 1000.8
20260508033333 8 225 8.0 22.5 0.03 0.20 0.03 94 1000.9
20260508032825 9 180 3.2 22.5 0.03 0.20 0.03 94 1001.0
20260508032312 9 270 9.7 24.1 0.03 0.20 0.03 94 1000.7
20260508031803 9 225 9.7 24.1 0.03 0.20 0.03 93 1000.9
20260508031252 9 68 6.4 27.4 0.03 0.20 0.03 92 1000.7
20260508030742 10 113 4.8 33.8 0.00 0.18 0.00 90 1000.6
20260508030231 10 225 12.9 33.8 0.00 0.18 0.00 88 1000.8
20260508025722 10 225 11.3 32.2 0.00 0.18 2.64 90 1000.7
20260508025212 10 203 11.3 24.1 0.00 0.18 2.64 91 1000.5
20260508024701 10 225 11.3 24.1 0.00 0.18 2.64 92 1000.7
20260508024154 10 338 4.8 20.9 0.00 0.18 2.64 92 1000.4
20260508023641 10 158 9.7 20.9 0.00 0.18 2.64 93 1000.7
20260508023132 10 225 9.7 32.2 0.00 0.18 2.64 92 1000.7
20260508022111 10 203 14.5 22.5 0.00 0.18 2.64 94 1000.5
20260508021602 10 225 8.0 24.1 0.03 0.18 2.64 95 1000.5
20260508021055 10 293 6.4 24.1 0.03 0.18 2.64 95 1000.5
20260508020541 10 203 3.2 24.1 0.05 0.18 2.64 95 1000.4
20260508020030 10 338 6.4 27.4 0.05 0.18 2.64 95 1000.3
20260508015523 10 225 6.4 27.4 0.05 0.18 2.64 95 1000.4
20260508015010 10 248 9.7 27.4 0.10 0.18 2.64 95 1000.6
20260508014459 10 158 3.2 17.7 0.13 0.18 2.64 95 1000.5
20260508013950 10 248 6.4 17.7 0.15 0.18 2.64 95 1000.5
20260508013439 10 293 6.4 20.9 0.15 0.18 2.64 95 1000.5
20260508012930 10 315 6.4 25.7 0.18 0.18 2.64 95 1000.5
20260508012420 10 225 6.4 25.7 0.18 0.18 2.64 95 1000.5
20260508011909 10 270 8.0 24.1 0.18 0.18 2.64 95 1000.7
20260508011359 10 203 6.4 17.7 0.15 0.15 2.62 96 1000.6
20260508010852 10 0 8.0 17.7 0.15 0.15 2.62 95 1000.6
20260508010340 10 338 6.4 14.5 0.13 0.13 2.59 95 1000.4
20260508005829 10 315 3.2 22.5 0.13 0.13 2.59 95 1000.7
20260508004808 10 270 9.7 24.1 0.05 0.05 2.54 95 1000.7
20260508003748 11 315 6.4 17.7 0.03 0.03 2.49 94 1000.9
20260508003238 11 293 6.4 20.9 0.00 0.00 2.46 93 1000.9
20260508002728 11 338 6.4 20.9 0.00 0.00 2.46 91 1000.9
20260508002221 11 270 4.8 17.7 0.00 0.00 2.46 90 1001.1
20260508001708 11 293 6.4 17.7 0.00 0.00 2.46 87 1000.8
20260508000648 12 248 6.4 27.4 0.00 0.00 2.46 85 1000.7
20260507235118 12 315 12.9 24.1 0.00 0.00 2.46 83 1000.5
20260507234058 12 338 9.7 20.9 0.00 0.00 2.46 84 1000.7
20260507233550 12 270 6.4 20.9 0.00 0.00 2.46 84 1000.7
20260507233037 12 293 4.8 20.9 0.00 0.00 2.46 84 1000.8
20260507232017 12 315 4.8 17.7 0.00 0.00 2.46 84 1000.6
20260507231507 12 293 6.4 17.7 0.00 0.00 2.46 84 1000.8
20260507230956 12 248 8.0 17.7 0.00 0.00 2.46 83 1000.9
20260507230446 12 338 6.4 14.5 0.00 0.00 2.46 82 1001.1
20260507225936 12 248 6.4 12.9 0.00 0.00 2.46 83 1001.1
20260507225426 12 338 6.4 12.9 0.00 0.00 2.46 84 1001.1
20260507224919 12 315 3.2 17.7 0.00 0.00 2.46 84 1001.2
20260507224406 12 248 6.4 17.7 0.00 0.00 2.46 84 1001.1
20260507223855 12 270 3.2 20.9 0.00 0.00 2.46 85 1001.0
20260507223346 12 293 3.2 20.9 0.00 0.00 2.46 86 1001.1
20260507222838 12 338 6.4 17.7 0.00 0.00 2.46 86 1001.0
20260507222325 12 293 4.8 25.7 0.00 0.00 2.46 86 1001.0
20260507221816 12 270 6.4 25.7 0.00 0.00 2.46 86 1000.9
20260507221304 12 315 6.4 17.7 0.00 0.00 2.46 86 1001.0
20260507220755 12 293 6.4 27.4 0.00 0.00 2.46 85 1000.6
20260507220247 12 338 6.4 27.4 0.00 0.00 2.46 84 1000.7
20260507215735 12 338 9.7 20.9 0.00 0.00 2.46 84 1000.4
20260507214716 13 270 8.0 17.7 0.00 0.00 2.46 83 1000.2
20260507214204 13 0 4.8 17.7 0.00 0.00 2.46 83 1000.1
20260507213144 13 315 6.4 17.7 0.00 0.00 2.46 82 1000.4
20260507212634 13 338 3.2 12.9 0.00 0.00 2.46 82 1000.2
20260507212124 13 270 3.2 12.9 0.00 0.00 2.46 82 1000.2
20260507211617 13 225 6.4 17.7 0.00 0.00 2.46 80 1000.3
20260507211104 13 293 3.2 20.9 0.00 0.00 2.46 80 1000.4
20260507210554 13 315 6.4 20.9 0.00 0.00 2.46 80 1000.4
20260507210044 13 248 8.0 14.5 0.00 0.00 2.46 81 1000.3
20260507205533 13 338 6.4 17.7 0.00 0.00 2.46 80 1000.3
20260507205024 13 293 6.4 17.7 0.00 0.00 2.46 79 1000.1
20260507204513 13 338 3.2 17.7 0.00 0.00 2.46 79 999.8
20260507204003 13 338 6.4 24.1 0.00 0.00 2.46 78 1000.0
20260507203452 13 315 11.3 24.1 0.00 0.00 2.46 77 999.8
20260507202946 13 338 11.3 20.9 0.00 0.00 2.46 77 999.7
20260507202434 13 270 9.7 17.7 0.00 0.00 2.46 76 999.7
20260507201928 13 315 4.8 17.7 0.00 0.00 2.46 75 999.8
20260507201412 13 293 4.8 20.9 0.00 0.00 2.46 74 999.7
20260507200903 13 248 6.4 20.9 0.00 0.00 2.46 74 999.7
20260507195844 13 203 6.4 25.7 0.00 0.00 2.46 73 999.4
20260507195344 14 338 9.7 25.7 0.00 0.00 2.46 74 998.8
20260507194821 14 248 6.4 17.7 0.00 0.00 2.46 74 998.6
20260507193252 14 203 6.4 27.4 0.00 0.00 2.46 72 998.2
20260507192741 15 270 6.4 17.7 0.00 0.00 2.46 72 998.3
20260507191721 15 0 3.2 22.5 0.00 0.00 2.46 71 998.7
20260507191211 15 180 4.8 22.5 0.00 0.00 2.46 70 998.9
20260507190701 15 45 6.4 20.9 0.00 0.00 2.46 69 999.1
20260507190150 15 248 12.9 24.1 0.00 0.00 2.46 69 999.3
20260507185644 15 293 11.3 24.1 0.00 0.00 2.46 69 999.7
20260507184626 15 248 6.4 17.7 0.00 0.00 2.46 72 1000.3
20260507184110 15 270 6.4 20.9 0.00 0.00 2.46 72 1000.5
20260507182541 15 293 6.4 37.0 0.00 0.00 2.46 72 1000.5
20260507182027 15 248 9.7 37.0 0.00 0.00 2.46 71 1000.7
20260507181517 15 315 6.4 17.7 0.00 0.00 2.46 73 1001.1
20260507181011 15 338 11.3 22.5 0.00 0.00 2.46 73 1001.1
20260507180459 15 338 11.3 22.5 0.00 0.00 2.46 73 1001.2
20260507175440 15 293 6.4 25.7 0.00 0.00 2.46 73 1001.3
20260507174930 15 45 6.4 20.9 0.00 0.00 2.46 74 1001.5
20260507174419 15 68 12.9 20.9 0.00 0.00 2.46 74 1001.5
20260507173909 15 338 4.8 22.5 0.00 0.00 2.46 76 1001.1
20260507173359 15 225 6.4 22.5 0.00 0.00 2.46 74 1001.3
20260507172342 15 315 4.8 12.9 0.00 0.00 2.46 73 1000.1
20260507171829 15 203 6.4 14.5 0.00 0.00 2.46 73 999.9
20260507171318 15 225 3.2 14.5 0.00 0.00 2.46 74 1000.0
20260507170808 15 180 4.8 14.5 0.00 0.00 2.46 73 999.9
20260507170259 15 315 3.2 14.5 0.00 0.00 2.46 74 999.9
20260507165748 15 203 6.4 17.7 0.00 0.00 2.46 73 1000.0
20260507165239 15 293 4.8 20.9 0.00 0.00 2.46 73 1000.1
20260507164728 15 0 3.2 20.9 0.00 0.00 2.46 74 1000.3
20260507164218 15 293 6.4 14.5 0.00 0.00 2.46 74 1000.3
20260507163711 15 158 3.2 17.7 0.00 0.00 2.46 76 1001.0
20260507163158 15 338 6.4 17.7 0.00 0.00 2.46 75 1001.0
20260507162648 15 248 3.2 14.5 0.00 0.00 2.46 75 1001.2
20260507162139 15 270 6.4 12.9 0.00 0.00 2.46 75 1001.4
20260507161627 15 270 6.4 12.9 0.00 0.00 2.46 75 1001.4
20260507161117 15 248 6.4 12.9 0.00 0.00 2.46 75 1001.2
20260507160607 15 248 4.8 17.7 0.00 0.00 2.46 76 1000.8
20260507160058 15 203 6.4 17.7 0.00 0.00 2.46 75 1000.5
20260507155547 15 225 4.8 14.5 0.00 0.00 2.46 76 1000.2
20260507155043 15 248 3.2 14.5 0.00 0.00 2.46 77 1000.5
20260507154528 14 315 6.4 17.7 0.00 0.00 2.46 77 1000.5
20260507154016 14 338 6.4 17.7 0.00 0.00 2.46 76 1000.2
20260507152956 15 248 3.2 12.9 0.00 0.00 2.46 78 1000.0
20260507152447 15 158 4.8 14.5 0.00 0.00 2.46 77 1000.5
20260507151936 15 225 6.4 14.5 0.00 0.00 2.46 77 1000.7
20260507151426 15 338 6.4 20.9 0.00 0.00 2.46 76 1000.5
20260507150408 15 248 4.8 0.0 0.00 0.00 2.46 75 1000.5
20260507150152 15 180 6.4 0.0 0.00 0.00 2.46 75 1000.7
20260507145720 15 203 6.4 20.9 0.00 0.00 2.46 74 1000.8
20260507145211 15 248 6.4 20.9 0.00 0.00 2.46 75 1000.8
20260507144703 15 225 6.4 14.5 0.00 0.00 2.46 76 1000.5
20260507144151 15 203 3.2 20.9 0.00 0.00 2.46 77 1000.6
20260507143641 15 158 4.8 22.5 0.00 0.00 2.46 77 1000.6
20260507143130 15 338 9.7 22.5 0.00 0.00 2.46 80 1000.5
20260507142620 15 338 6.4 17.7 0.00 0.00 2.46 83 1000.7
20260507142110 15 270 4.8 17.7 0.00 0.00 2.46 85 1000.5
20260507141600 15 315 8.0 17.7 0.00 0.00 2.46 86 1000.4
20260507140545 15 293 3.2 12.9 0.00 0.00 2.46 88 1000.0